AB5KT-1 Weather Reports


Display with metric or nautical units.
time (UTC)temp
F
wind
direction
speed
MPH
gust
MPH
rain 1hr
in
rain 24hr
in
rain mn
in
humidity
%
barometer
mb
20260904010816 92 110 7.0 20.0 0.00 0.00 0.00 50 1011.0
20260904010316 93 160 8.0 20.0 0.00 0.00 0.00 49 1010.9
20260904005816 93 121 7.0 19.0 0.00 0.00 0.00 47 1010.8
20260904005316 94 92 7.0 19.0 0.00 0.00 0.00 46 1010.7
20260904004816 95 155 7.0 19.0 0.00 0.00 0.00 44 1010.7
20260904004316 96 87 5.0 12.0 0.00 0.00 0.00 42 1010.5
20260904003815 98 107 4.0 12.0 0.00 0.00 0.00 39 1010.4
20260904003315 98 122 3.0 7.0 0.00 0.00 0.00 37 1010.3
20260904002814 99 103 2.0 7.0 0.00 0.00 0.00 37 1010.3
20260904002314 100 99 1.0 7.0 0.00 0.00 0.00 36 1010.2
20260904001815 100 116 2.0 8.0 0.00 0.00 0.00 36 1010.2
20260904001318 100 52 3.0 8.0 0.00 0.00 0.00 35 1010.2
20260904001314 100 120 3.0 8.0 0.00 0.00 0.00 36 1010.2
20260904000314 101 136 3.0 8.0 0.00 0.00 0.00 35 1010.2
20260903235816 101 122 2.0 8.0 0.00 0.00 0.00 34 1010.2
20260903235812 101 111 2.0 8.0 0.00 0.00 0.00 34 1010.1
20260903234812 101 103 3.0 8.0 0.00 0.00 0.00 34 1010.2
20260903234312 101 88 3.0 8.0 0.00 0.00 0.00 34 1010.1
20260903233816 101 115 4.0 10.0 0.00 0.00 0.00 34 1010.1
20260903233812 101 102 3.0 10.0 0.00 0.00 0.00 34 1010.1
20260903232812 102 117 4.0 9.0 0.00 0.00 0.00 35 1010.1
20260903232313 102 38 3.0 9.0 0.00 0.00 0.00 35 1010.0
20260903231812 102 65 3.0 9.0 0.00 0.00 0.00 35 1010.0
20260903231310 102 123 3.0 9.0 0.00 0.00 0.00 35 1010.0
20260903230810 102 109 4.0 9.0 0.00 0.00 0.00 35 1010.0
20260903230314 103 166 3.0 9.0 0.00 0.00 0.00 34 1010.1
20260903230310 103 94 4.0 9.0 0.00 0.00 0.00 34 1010.1
20260903225310 103 134 3.0 9.0 0.00 0.00 0.00 34 1010.0
20260903224810 103 128 3.0 8.0 0.00 0.00 0.00 34 1010.0
20260903224310 103 213 3.0 7.0 0.00 0.00 0.00 34 1010.0
20260903223808 103 136 3.0 8.0 0.00 0.00 0.00 34 1010.0
20260903223307 104 130 3.0 8.0 0.00 0.00 0.00 34 1010.0
20260903222808 104 153 3.0 8.0 0.00 0.00 0.00 34 1010.1
20260903222307 104 71 3.0 8.0 0.00 0.00 0.00 34 1010.1
20260903221806 103 109 4.0 13.0 0.00 0.00 0.00 35 1010.1
20260903221306 103 111 4.0 13.0 0.00 0.00 0.00 34 1010.1
20260903220806 103 78 2.0 7.0 0.00 0.00 0.00 35 1010.2
20260903220302 103 120 1.0 7.0 0.00 0.00 0.00 35 1010.2
20260903215800 103 30 3.0 10.0 0.00 0.00 0.00 34 1010.2
20260903215300 103 122 4.0 10.0 0.00 0.00 0.00 35 1010.3
20260903214758 103 98 4.0 11.0 0.00 0.00 0.00 35 1010.3
20260903214258 103 90 3.0 11.0 0.00 0.00 0.00 36 1010.3
20260903213758 103 56 3.0 9.0 0.00 0.00 0.00 34 1010.4
20260903213258 104 70 3.0 8.0 0.00 0.00 0.00 34 1010.5
20260903212758 103 128 2.0 7.0 0.00 0.00 0.00 35 1010.5
20260903212259 103 126 1.0 7.0 0.00 0.00 0.00 35 1010.5
20260903211756 103 157 2.0 7.0 0.00 0.00 0.00 36 1010.7
20260903211254 103 138 3.0 8.0 0.00 0.00 0.00 34 1010.8
20260903210754 102 24 3.0 8.0 0.00 0.00 0.00 36 1010.9
20260903210255 101 148 3.0 10.0 0.00 0.00 0.00 37 1010.9
20260903205754 101 151 3.0 10.0 0.00 0.00 0.00 36 1010.9
20260903205252 101 150 4.0 10.0 0.00 0.00 0.00 38 1011.0
20260903204752 101 175 3.0 10.0 0.00 0.00 0.00 37 1011.0
20260903204252 101 192 3.0 11.0 0.00 0.00 0.00 39 1011.1
20260903203756 101 165 3.0 8.0 0.00 0.00 0.00 39 1011.2
20260903203752 101 294 3.0 11.0 0.00 0.00 0.00 37 1011.1
20260903202752 100 171 4.0 8.0 0.00 0.00 0.00 40 1011.3
20260903202252 100 126 4.0 11.0 0.00 0.00 0.00 40 1011.4
20260903201753 100 151 4.0 11.0 0.00 0.00 0.00 39 1011.4
20260903201252 100 163 3.0 9.0 0.00 0.00 0.00 41 1011.4
20260903200752 100 188 3.0 9.0 0.00 0.00 0.00 40 1011.5
20260903200252 101 99 3.0 9.0 0.00 0.00 0.00 39 1011.6
20260903195751 101 112 3.0 9.0 0.00 0.00 0.00 39 1011.6
20260903195250 100 117 3.0 8.0 0.00 0.00 0.00 41 1011.6
20260903194750 100 124 2.0 7.0 0.00 0.00 0.00 41 1011.8
20260903194250 100 142 2.0 7.0 0.00 0.00 0.00 43 1012.0
20260903193750 100 138 3.0 7.0 0.00 0.00 0.00 43 1012.0
20260903193251 100 180 3.0 7.0 0.00 0.00 0.00 42 1012.1
20260903192749 99 109 3.0 7.0 0.00 0.00 0.00 42 1012.2
20260903192248 99 105 3.0 13.0 0.00 0.00 0.00 43 1012.3
20260903191748 98 136 3.0 13.0 0.00 0.00 0.00 43 1012.4
20260903191249 98 159 3.0 9.0 0.00 0.00 0.00 46 1012.4
20260903190748 97 159 3.0 9.0 0.00 0.00 0.00 47 1012.5
20260903190252 98 178 3.0 9.0 0.00 0.00 0.00 46 1012.8
20260903190248 98 151 2.0 9.0 0.00 0.00 0.00 45 1012.6
20260903185252 96 179 2.0 7.0 0.00 0.00 0.00 47 1013.0
20260903185248 97 144 3.0 9.0 0.00 0.00 0.00 46 1012.9
20260903184853 96 100 4.0 12.0 0.00 0.00 0.00 48 1013.0
20260903183751 96 129 1.0 8.0 0.00 0.00 0.00 50 1013.2
20260903183746 96 182 4.0 12.0 0.00 0.00 0.00 47 1013.1
20260903182744 95 208 2.0 7.0 0.00 0.00 0.00 51 1013.3
20260903182245 96 161 4.0 12.0 0.00 0.00 0.00 50 1013.5
20260903181742 96 196 3.0 12.0 0.00 0.00 0.00 48 1013.5
20260903181240 96 180 2.0 6.0 0.00 0.00 0.00 50 1013.5
20260903180740 95 128 3.0 7.0 0.00 0.00 0.00 51 1013.6
20260903180241 95 142 3.0 7.0 0.00 0.00 0.00 50 1013.7
20260903175739 94 130 3.0 7.0 0.00 0.00 0.00 54 1013.7
20260903175238 94 186 3.0 7.0 0.00 0.00 0.00 53 1013.8
20260903174739 94 115 3.0 8.0 0.00 0.00 0.00 52 1013.9
20260903174241 94 118 2.0 8.0 0.00 0.00 0.00 53 1014.0
20260903174237 93 128 2.0 7.0 0.00 0.00 0.00 57 1014.1
20260903173237 93 61 2.0 8.0 0.00 0.00 0.00 54 1014.0
20260903173233 92 151 3.0 8.0 0.00 0.00 0.00 57 1014.2
20260903172836 92 146 3.0 8.0 0.00 0.00 0.00 59 1014.2
20260903172337 92 161 3.0 8.0 0.00 0.00 0.00 59 1014.3
20260903171836 92 84 2.0 8.0 0.00 0.00 0.00 59 1014.3
20260903170735 91 117 2.0 7.0 0.00 0.00 0.00 59 1014.5
20260903170731 91 216 2.0 7.0 0.00 0.00 0.00 61 1014.4
20260903170334 91 90 2.0 7.0 0.00 0.00 0.00 62 1014.4
20260903165231 91 167 2.0 7.0 0.00 0.00 0.00 61 1014.5
20260903164730 91 103 2.0 7.0 0.00 0.00 0.00 61 1014.5
20260903164231 90 102 2.0 7.0 0.00 0.00 0.00 64 1014.6
20260903163735 89 130 2.0 8.0 0.00 0.00 0.00 66 1014.7
20260903163730 90 115 2.0 8.0 0.00 0.00 0.00 65 1014.6
20260903162731 89 120 2.0 8.0 0.00 0.00 0.00 66 1014.8
20260903162230 89 138 2.0 8.0 0.00 0.00 0.00 67 1014.7
20260903161730 88 179 3.0 10.0 0.00 0.00 0.00 67 1014.7
20260903161231 87 172 4.0 10.0 0.00 0.00 0.00 68 1014.7
20260903160734 87 207 2.0 8.0 0.00 0.00 0.00 70 1014.7
20260903160730 87 134 2.0 8.0 0.00 0.00 0.00 70 1014.6
20260903155730 87 172 3.0 8.0 0.00 0.00 0.00 70 1014.7
20260903155230 86 134 4.0 7.0 0.00 0.00 0.00 71 1014.7
20260903154731 85 130 4.0 8.0 0.00 0.00 0.00 72 1014.7
20260903154230 85 166 3.0 8.0 0.00 0.00 0.00 73 1014.7
20260903153730 85 132 3.0 8.0 0.00 0.00 0.00 73 1014.6
20260903153231 84 217 3.0 8.0 0.00 0.00 0.00 74 1014.7
20260903152730 85 203 3.0 8.0 0.00 0.00 0.00 75 1014.7
20260903152230 84 159 3.0 8.0 0.00 0.00 0.00 75 1014.8
20260903151730 84 115 3.0 7.0 0.00 0.00 0.00 75 1014.8
20260903151231 84 155 3.0 8.0 0.00 0.00 0.00 75 1014.9
20260903150731 83 130 3.0 8.0 0.00 0.00 0.00 76 1014.8
20260903150230 83 184 4.0 10.0 0.00 0.00 0.00 76 1014.8
20260903145731 83 161 3.0 10.0 0.00 0.00 0.00 77 1014.8
20260903145230 82 163 2.0 7.0 0.00 0.00 0.00 78 1014.8
20260903144730 82 210 3.0 7.0 0.00 0.00 0.00 78 1014.8
20260903144230 82 161 3.0 7.0 0.00 0.00 0.00 78 1014.8
20260903143734 82 138 2.0 8.0 0.00 0.00 0.00 79 1014.8
20260903143730 82 203 2.0 7.0 0.00 0.00 0.00 78 1014.8
20260903143335 82 143 2.0 7.0 0.00 0.00 0.00 79 1014.8
20260903142833 82 155 3.0 8.0 0.00 0.00 0.00 79 1014.8
20260903141833 81 161 1.0 5.0 0.00 0.00 0.00 80 1014.8
20260903141733 82 168 2.0 6.0 0.00 0.00 0.00 79 1014.8
20260903141729 82 186 2.0 7.0 0.00 0.00 0.00 79 1014.8
20260903140832 81 157 1.0 4.0 0.00 0.00 0.00 81 1014.9
20260903135728 81 161 1.0 5.0 0.00 0.00 0.00 82 1014.9
20260903135229 80 161 2.0 5.0 0.00 0.00 0.00 82 1015.0
20260903134729 80 125 2.0 5.0 0.00 0.00 0.00 82 1014.9
20260903134227 80 136 2.0 5.0 0.00 0.00 0.00 82 1014.9
20260903133727 80 131 1.0 6.0 0.00 0.00 0.00 82 1014.9
20260903133225 80 128 1.0 6.0 0.00 0.00 0.00 82 1015.0
20260903132725 80 134 1.0 5.0 0.00 0.00 0.00 83 1014.9
20260903132225 80 132 1.0 5.0 0.00 0.00 0.00 83 1015.0
20260903131724 80 154 1.0 5.0 0.00 0.00 0.00 83 1015.0
20260903131224 79 163 1.0 5.0 0.00 0.00 0.00 83 1014.8
20260903130725 79 152 0.0 4.0 0.00 0.00 0.00 84 1014.9
20260903130225 79 113 0.0 2.0 0.00 0.00 0.00 84 1014.9
20260903125724 79 119 1.0 5.0 0.00 0.00 0.00 84 1014.9
20260903125225 79 139 1.0 5.0 0.00 0.00 0.00 84 1014.8
20260903124726 79 164 1.0 4.0 0.00 0.00 0.00 84 1014.7
20260903124227 79 162 1.0 4.0 0.00 0.00 0.00 84 1014.6
20260903124223 79 138 2.0 5.0 0.00 0.00 0.00 84 1014.6
20260903123222 79 165 2.0 5.0 0.00 0.00 0.00 84 1014.6
20260903122722 79 167 1.0 5.0 0.00 0.00 0.00 84 1014.6
20260903122223 79 155 1.0 4.0 0.00 0.00 0.00 84 1014.7
20260903121723 79 128 0.0 4.0 0.00 0.00 0.00 84 1014.6
20260903121223 79 124 1.0 4.0 0.00 0.00 0.00 84 1014.5
20260903120723 79 163 1.0 4.0 0.00 0.00 0.00 84 1014.5
20260903120223 79 161 1.0 7.0 0.00 0.00 0.00 84 1014.4
20260903115722 79 143 2.0 7.0 0.00 0.00 0.00 84 1014.4
20260903115222 79 184 2.0 5.0 0.00 0.00 0.00 83 1014.4
20260903114723 79 198 2.0 6.0 0.00 0.00 0.00 83 1014.3
20260903114223 79 169 2.0 6.0 0.00 0.00 0.00 83 1014.3
20260903113721 79 144 2.0 5.0 0.00 0.00 0.00 83 1014.3
20260903113221 79 133 3.0 6.0 0.00 0.00 0.00 83 1014.3
20260903112718 79 159 3.0 6.0 0.00 0.00 0.00 83 1014.3
20260903112216 79 160 2.0 5.0 0.00 0.00 0.00 83 1014.3
20260903111714 79 177 1.0 5.0 0.00 0.00 0.00 83 1014.4
20260903111215 79 201 1.0 4.0 0.00 0.00 0.00 83 1014.4
20260903110713 79 147 1.0 4.0 0.00 0.00 0.00 83 1014.4
20260903110213 79 167 1.0 4.0 0.00 0.00 0.00 83 1014.4
20260903105710 79 161 2.0 4.0 0.00 0.00 0.00 83 1014.5
20260903105211 79 163 2.0 6.0 0.00 0.00 0.00 83 1014.5
20260903104710 79 134 2.0 6.0 0.00 0.00 0.00 83 1014.4
20260903104209 79 151 2.0 6.0 0.00 0.00 0.00 83 1014.4
20260903103709 79 129 2.0 6.0 0.00 0.00 0.00 83 1014.4
20260903103208 80 141 2.0 6.0 0.00 0.00 0.00 83 1014.3
20260903102706 80 105 2.0 5.0 0.00 0.00 0.00 83 1014.3
20260903102205 80 111 2.0 6.0 0.00 0.00 0.00 83 1014.2
20260903101703 80 132 2.0 7.0 0.00 0.00 0.00 83 1014.3
20260903101202 80 142 1.0 7.0 0.00 0.00 0.00 83 1014.3
20260903100702 80 180 1.0 6.0 0.00 0.00 0.00 83 1014.3
20260903100203 80 149 2.0 6.0 0.00 0.00 0.00 83 1014.3
20260903095703 80 172 2.0 6.0 0.00 0.00 0.00 83 1014.3
20260903095202 80 160 2.0 6.0 0.00 0.00 0.00 83 1014.3
20260903094705 80 128 1.0 5.0 0.00 0.00 0.00 83 1014.3
20260903094701 80 165 1.0 5.0 0.00 0.00 0.00 83 1014.3
20260903093700 80 173 3.0 8.0 0.00 0.00 0.00 83 1014.2
20260903093159 80 165 3.0 9.0 0.00 0.00 0.00 82 1014.2
20260903092659 80 133 4.0 9.0 0.00 0.00 0.00 82 1014.2
20260903092159 80 171 4.0 9.0 0.00 0.00 0.00 82 1014.2
20260903091659 80 144 3.0 8.0 0.00 0.00 0.00 82 1014.2
20260903091159 80 184 3.0 7.0 0.00 0.00 0.00 82 1014.2
20260903090659 80 62 2.0 5.0 0.00 0.00 0.00 83 1014.2
20260903090149 80 150 1.0 5.0 0.00 0.00 0.00 82 1014.3
20260903085649 80 126 1.0 6.0 0.00 0.00 0.00 83 1014.3
20260903085149 80 172 2.0 6.0 0.00 0.00 0.00 83 1014.3
20260903084649 80 129 1.0 8.0 0.00 0.00 0.00 82 1014.2
20260903084153 80 130 2.0 8.0 0.00 0.00 0.00 82 1014.3
20260903084149 80 115 1.0 8.0 0.00 0.00 0.00 82 1014.2
20260903083148 80 126 2.0 5.0 0.00 0.00 0.00 82 1014.2
20260903082649 80 125 1.0 5.0 0.00 0.00 0.00 82 1014.3
20260903082153 80 135 2.0 7.0 0.00 0.00 0.00 81 1014.2
20260903082149 80 119 2.0 7.0 0.00 0.00 0.00 82 1014.2
20260903081149 80 170 1.0 5.0 0.00 0.00 0.00 81 1014.1
20260903080649 80 150 0.0 5.0 0.00 0.00 0.00 81 1014.2
20260903080148 80 124 0.0 2.0 0.00 0.00 0.00 80 1014.2
20260903075649 80 124 1.0 4.0 0.00 0.00 0.00 80 1014.1
20260903075149 80 155 1.0 4.0 0.00 0.00 0.00 80 1014.2
20260903074648 80 117 0.0 4.0 0.00 0.00 0.00 80 1014.1
20260903074153 80 165 1.0 6.0 0.00 0.00 0.00 79 1014.2
20260903074149 80 127 0.0 4.0 0.00 0.00 0.00 79 1014.1
20260903073149 80 118 1.0 6.0 0.00 0.00 0.00 79 1014.2
20260903072649 80 127 2.0 5.0 0.00 0.00 0.00 78 1014.3
20260903072147 81 102 2.0 6.0 0.00 0.00 0.00 78 1014.3
20260903071646 81 121 1.0 6.0 0.00 0.00 0.00 78 1014.4
20260903071151 81 126 1.0 6.0 0.00 0.00 0.00 77 1014.4
20260903071147 81 117 1.0 6.0 0.00 0.00 0.00 77 1014.4
20260903070146 81 114 1.0 5.0 0.00 0.00 0.00 76 1014.4
20260903065645 81 127 1.0 7.0 0.00 0.00 0.00 76 1014.4
20260903065149 82 111 2.0 7.0 0.00 0.00 0.00 75 1014.4
20260903065145 81 111 1.0 7.0 0.00 0.00 0.00 76 1014.4
20260903064749 82 126 3.0 7.0 0.00 0.00 0.00 75 1014.4
20260903063646 82 113 3.0 7.0 0.00 0.00 0.00 75 1014.4
20260903063143 82 124 2.0 6.0 0.00 0.00 0.00 75 1014.4
20260903062642 82 94 2.0 6.0 0.00 0.00 0.00 75 1014.4
20260903062143 82 118 2.0 7.0 0.00 0.00 0.00 75 1014.4
20260903061647 83 112 3.0 7.0 0.00 0.00 0.00 74 1014.2
20260903061643 82 114 2.0 7.0 0.00 0.00 0.00 74 1014.3
20260903060643 83 162 3.0 8.0 0.00 0.00 0.00 74 1014.2
20260903060143 83 118 2.0 8.0 0.00 0.00 0.00 74 1014.2
20260903055647 83 119 3.0 8.0 0.00 0.00 0.00 74 1014.2
20260903055643 83 126 2.0 8.0 0.00 0.00 0.00 74 1014.2
20260903054642 83 167 3.0 7.0 0.00 0.00 0.00 74 1014.3
20260903054141 83 162 3.0 8.0 0.00 0.00 0.00 73 1014.2
20260903053641 83 124 2.0 8.0 0.00 0.00 0.00 73 1014.2
20260903053140 83 148 2.0 6.0 0.00 0.00 0.00 73 1014.3
20260903052641 83 129 2.0 6.0 0.00 0.00 0.00 73 1014.3
20260903052141 84 158 2.0 7.0 0.00 0.00 0.00 72 1014.2
20260903051641 84 111 2.0 7.0 0.00 0.00 0.00 72 1014.2
20260903051139 84 103 2.0 6.0 0.00 0.00 0.00 71 1014.2
20260903050643 85 115 2.0 6.0 0.00 0.00 0.00 70 1014.1
20260903050639 84 115 2.0 6.0 0.00 0.00 0.00 71 1014.1
20260903050244 85 159 1.0 6.0 0.00 0.00 0.00 69 1014.1
20260903045139 85 105 2.0 8.0 0.00 0.00 0.00 69 1014.1
20260903044637 85 182 2.0 9.0 0.00 0.00 0.00 68 1014.1
20260903044137 85 150 3.0 11.0 0.00 0.00 0.00 68 1014.0
20260903043636 86 226 3.0 11.0 0.00 0.00 0.00 67 1013.9
20260903043136 86 109 3.0 15.0 0.00 0.00 0.00 66 1013.9
20260903042637 86 160 4.0 15.0 0.00 0.00 0.00 64 1013.9
20260903042136 86 146 5.0 11.0 0.00 0.00 0.00 63 1013.8
20260903041638 87 95 3.0 12.0 0.00 0.00 0.00 62 1013.9
20260903041634 87 98 4.0 12.0 0.00 0.00 0.00 63 1013.8
20260903040638 87 169 4.0 9.0 0.00 0.00 0.00 62 1013.7
20260903040634 87 76 3.0 9.0 0.00 0.00 0.00 62 1013.8
20260903035634 88 82 3.0 8.0 0.00 0.00 0.00 61 1013.6
20260903035134 88 110 1.0 7.0 0.00 0.00 0.00 60 1013.6
20260903034638 88 131 3.0 8.0 0.00 0.00 0.00 59 1013.3
20260903034634 88 144 2.0 8.0 0.00 0.00 0.00 60 1013.4
20260903033632 88 148 3.0 9.0 0.00 0.00 0.00 59 1013.3
20260903033132 89 45 2.0 9.0 0.00 0.00 0.00 58 1013.2
20260903032632 89 126 3.0 9.0 0.00 0.00 0.00 57 1013.0
20260903032132 89 129 3.0 9.0 0.00 0.00 0.00 57 1013.0
20260903031632 89 138 3.0 9.0 0.00 0.00 0.00 56 1012.9
20260903031130 89 128 3.0 10.0 0.00 0.00 0.00 55 1012.9
20260903030628 90 95 2.0 11.0 0.00 0.00 0.00 52 1012.9
20260903030128 90 107 1.0 11.0 0.00 0.00 0.00 49 1012.7
20260903025629 90 134 0.0 2.0 0.00 0.00 0.00 47 1012.5
20260903025128 90 133 0.0 1.0 0.00 0.00 0.00 47 1012.4
20260903024628 90 133 0.0 1.0 0.00 0.00 0.00 46 1012.4
20260903024129 90 133 0.0 1.0 0.00 0.00 0.00 47 1012.4
20260903023628 90 134 0.0 1.0 0.00 0.00 0.00 46 1012.3
20260903023128 90 133 0.0 1.0 0.00 0.00 0.00 46 1012.2
20260903022628 91 133 0.0 1.0 0.00 0.00 0.00 45 1012.2
20260903022132 91 133 0.0 1.0 0.00 0.00 0.00 44 1012.2
20260903022128 91 134 0.0 1.0 0.00 0.00 0.00 44 1012.2
20260903021129 91 133 0.0 1.0 0.00 0.00 0.00 43 1012.1
20260903020628 91 134 0.0 1.0 0.00 0.00 0.00 43 1012.0
20260903020132 92 134 0.0 1.0 0.00 0.00 0.00 42 1011.8
20260903020128 92 134 0.0 1.0 0.00 0.00 0.00 43 1012.0
20260903015128 92 134 0.0 1.0 0.00 0.00 0.00 41 1011.8
20260903014629 93 134 0.0 2.0 0.00 0.00 0.00 41 1011.6
20260903014126 93 134 0.0 2.0 0.00 0.00 0.00 40 1011.6
20260903013627 93 134 0.0 1.0 0.00 0.00 0.00 40 1011.6
20260903013126 94 134 0.0 1.0 0.00 0.00 0.00 40 1011.5
20260903012624 94 134 0.0 1.0 0.00 0.00 0.00 39 1011.5
20260903012125 94 134 0.0 1.0 0.00 0.00 0.00 39 1011.5
20260903011622 95 134 0.0 2.0 0.00 0.00 0.00 38 1011.5